Regional Weather Roundup
Issued by NWS

Home | Current Version | Previous Version | Text Only | Print | Product List | Glossary Off
Versions: 1 2 3 4 5 6 7 8 9 10 11 12 13 14 15 16 17 18 19 20 21 22 23 24 25 26 27

000
ASUS45 KCYS 281010
RWRWY

WYOMING REGIONAL WEATHER ROUNDUP
NATIONAL WEATHER SERVICE CHEYENNE WY
400 AM MDT THU JUL 28 2016

NOTE:  "FAIR" INDICATES FEW OR NO CLOUDS BELOW 12,000 FEET
WITH NO SIGNIFICANT WEATHER AND/OR OBSTRUCTIONS TO VISIBILITY.

WYZ001-281100-
YELLOWSTONE NATIONAL PARK

CITY           SKY/WX    TMP DP  RH WIND       PRES   REMARKS
LK YELLOWSTONE   N/A     45  44  97 W5        30.39F
W YELLOWSTONE  NOT AVBL

$$
WYZ002>013-054>058-071-098>099-281100-
NORTHERN WYOMING

CITY           SKY/WX    TMP DP  RH WIND       PRES   REMARKS
JACKSON        FAIR      59  43  55 N7        30.26S
CODY           MOCLDY    59  52  77 CALM      30.25F
GREYBULL       MOCLDY    65  56  72 N18G29    30.19F
WORLAND        TSTM      61  54  77 N23G44    30.20R
SHERIDAN       CLOUDY    64  57  78 NW13      30.19R
BUFFALO        LGT RAIN  62  55  77 W10       30.21S
GILLETTE       FAIR      60  55  83 S7        30.15F
HULETT         FAIR      61  54  77 CALM      30.16F
NEWCASTLE      FAIR      61  52  72 NW6       30.13F

$$
WYZ014>020-022>026-101>103-281100-
CENTRAL WYOMING

CITY           SKY/WX    TMP DP  RH WIND       PRES   REMARKS
BIG PINEY      FAIR      47  30  51 W6        30.28S
PINEDALE       FAIR      48  34  57 NW6       30.29S
DUBOIS         FAIR      54  34  47 CALM      30.32S HAZE
LANDER         FAIR      63  45  51 W9        30.21R
RIVERTON       FAIR      66  48  52 N9        30.21R
CASPER         FAIR      56  53  90 N3        30.18R
DOUGLAS          N/A    N/A N/A N/A MISG      30.17F

$$
WYZ021-027>030-104>119-281100-
SOUTHERN WYOMING

CITY           SKY/WX    TMP DP  RH WIND       PRES   REMARKS
EVANSTON       FAIR      60  25  26 S9        30.29S
KEMMERER         N/A     55  27  33 NW10      30.30S
FORT BRIDGER   FAIR      65  22  20 W7        30.29F
ROCK SPRINGS   FAIR      63  23  21 E6        30.25S
DIXON          FAIR      49  32  52 CALM      30.27R
RAWLINS        FAIR      50  41  71 NW6       30.23R
SARATOGA       FAIR      52  28  40 S13       30.24S
LARAMIE        FAIR      56  54  93 S16       30.25S
CHEYENNE       FAIR      59  55  87 S9        30.20F
TORRINGTON     FAIR      61  60  97 CALM      30.12S
PINE BLUFFS    FAIR      61  61 100 SE9G21    30.16S

$$




USA.gov is the U.S. government's official web portal to all federal, state and local government web resources and services.